TimeEDT,TemperatureF,Dew PointF,Humidity,Sea Level PressureIn,VisibilityMPH,Wind Direction,Wind SpeedMPH,Gust SpeedMPH,PrecipitationIn,Events,Conditions,WindDirDegrees,DateUTC
12:15 AM,51.1,47.5,87,30.09,10.0,SSW,4.6,-,N/A,,Clear,200,2013-09-20 04:15:00
12:35 AM,50.4,46.8,87,30.09,10.0,SSW,4.6,-,N/A,,Clear,200,2013-09-20 04:35:00
12:55 AM,49.5,46.2,89,30.09,10.0,SSW,4.6,-,N/A,,Clear,210,2013-09-20 04:55:00
1:15 AM,49.1,46.4,90,30.09,10.0,SW,5.8,-,N/A,,Clear,220,2013-09-20 05:15:00
1:35 AM,48.7,46.4,92,30.08,10.0,SW,5.8,-,N/A,,Clear,220,2013-09-20 05:35:00
1:55 AM,48.2,45.7,91,30.07,10.0,SSW,5.8,-,N/A,,Clear,210,2013-09-20 05:55:00
2:15 AM,47.7,45.5,92,30.07,10.0,SSW,4.6,-,N/A,,Clear,210,2013-09-20 06:15:00
2:35 AM,48.2,45.9,92,30.07,10.0,Calm,Calm,-,N/A,,Clear,0,2013-09-20 06:35:00
2:55 AM,48.4,46.0,92,30.07,10.0,Calm,Calm,-,N/A,,Clear,0,2013-09-20 06:55:00
3:15 AM,48.7,46.2,91,30.07,10.0,Calm,Calm,-,N/A,,Clear,0,2013-09-20 07:15:00
3:35 AM,47.1,44.4,90,30.07,10.0,SW,6.9,-,N/A,,Clear,220,2013-09-20 07:35:00
3:55 AM,46.4,44.1,92,30.07,7.0,SW,5.8,-,N/A,,Clear,230,2013-09-20 07:55:00
4:15 AM,46.6,44.6,93,30.07,7.0,SW,4.6,-,N/A,,Clear,220,2013-09-20 08:15:00
4:35 AM,47.3,45.1,92,30.07,10.0,Calm,Calm,-,N/A,,Clear,0,2013-09-20 08:35:00
4:55 AM,46.8,44.6,92,30.07,10.0,SSW,4.6,-,N/A,,Clear,210,2013-09-20 08:55:00
5:15 AM,46.4,44.4,93,30.07,10.0,SW,4.6,-,N/A,,Clear,220,2013-09-20 09:15:00
5:35 AM,46.0,43.9,92,30.07,7.0,SW,4.6,-,N/A,,Clear,220,2013-09-20 09:35:00
5:55 AM,46.0,43.9,92,30.07,7.0,Calm,Calm,-,N/A,,Clear,0,2013-09-20 09:55:00
6:15 AM,45.7,43.7,93,30.07,7.0,SW,4.6,-,N/A,,Clear,220,2013-09-20 10:15:00
6:35 AM,45.7,43.7,93,30.08,7.0,SW,4.6,-,N/A,,Clear,220,2013-09-20 10:35:00
6:55 AM,46.4,44.1,92,30.09,7.0,SW,5.8,-,N/A,,Clear,220,2013-09-20 10:55:00
7:15 AM,46.8,44.8,93,30.09,7.0,SW,3.5,-,N/A,,Clear,230,2013-09-20 11:15:00
7:35 AM,47.8,45.7,92,30.09,10.0,SW,5.8,-,N/A,,Clear,220,2013-09-20 11:35:00
7:55 AM,48.7,46.6,92,30.10,10.0,SW,4.6,-,N/A,,Clear,220,2013-09-20 11:55:00
8:15 AM,50.9,48.4,91,30.10,10.0,SSW,4.6,-,N/A,,Scattered Clouds,210,2013-09-20 12:15:00
8:35 AM,53.2,49.5,87,30.11,10.0,SW,3.5,-,N/A,,Mostly Cloudy,230,2013-09-20 12:35:00
8:55 AM,53.1,49.5,88,30.10,10.0,SW,4.6,-,N/A,,Overcast,230,2013-09-20 12:55:00
9:15 AM,54.3,50.7,88,30.09,10.0,SW,3.5,-,N/A,,Overcast,220,2013-09-20 13:15:00
9:35 AM,56.3,51.3,83,30.09,10.0,Calm,Calm,-,N/A,,Mostly Cloudy,0,2013-09-20 13:35:00
9:55 AM,59.4,53.1,80,30.09,10.0,Calm,Calm,-,N/A,,Scattered Clouds,0,2013-09-20 13:55:00
10:15 AM,62.8,54.5,74,30.09,10.0,SSW,5.8,-,N/A,,Clear,200,2013-09-20 14:15:00
10:35 AM,64.9,54.5,69,30.06,10.0,South,3.5,-,N/A,,Clear,170,2013-09-20 14:35:00
10:55 AM,67.6,52.3,58,30.05,10.0,South,6.9,-,N/A,,Clear,170,2013-09-20 14:55:00
11:15 AM,69.4,52.5,55,30.04,10.0,SSE,5.8,-,N/A,,Clear,150,2013-09-20 15:15:00
11:35 AM,70.2,52.3,53,30.04,10.0,SSE,10.4,-,N/A,,Clear,150,2013-09-20 15:35:00
11:55 AM,71.6,51.3,49,30.04,10.0,SSE,8.1,-,N/A,,Clear,150,2013-09-20 15:55:00
12:15 PM,72.0,52.0,49,30.04,10.0,SSE,9.2,-,N/A,,Clear,150,2013-09-20 16:15:00
12:35 PM,72.7,51.8,48,30.03,10.0,SE,6.9,-,N/A,,Clear,140,2013-09-20 16:35:00
12:55 PM,73.4,52.3,48,30.03,10.0,ESE,5.8,-,N/A,,Clear,120,2013-09-20 16:55:00
1:15 PM,73.8,52.7,48,30.02,10.0,SE,8.1,-,N/A,,Clear,140,2013-09-20 17:15:00
1:35 PM,74.3,52.5,46,30.01,10.0,SE,8.1,-,N/A,,Clear,130,2013-09-20 17:35:00
1:55 PM,74.7,52.5,46,30.00,10.0,SSE,10.4,-,N/A,,Clear,160,2013-09-20 17:55:00
2:15 PM,75.4,52.9,45,29.99,10.0,South,4.6,-,N/A,,Clear,170,2013-09-20 18:15:00
2:35 PM,75.7,51.3,42,29.99,10.0,Calm,Calm,-,N/A,,Clear,0,2013-09-20 18:35:00
2:55 PM,76.1,49.8,40,29.99,10.0,SW,8.1,-,N/A,,Clear,220,2013-09-20 18:55:00
3:15 PM,75.4,49.6,40,29.98,10.0,SSW,10.4,-,N/A,,Clear,210,2013-09-20 19:15:00
3:35 PM,75.6,48.6,38,29.97,10.0,SSW,8.1,-,N/A,,Clear,200,2013-09-20 19:35:00
3:55 PM,76.1,45.5,34,29.96,10.0,South,8.1,-,N/A,,Clear,190,2013-09-20 19:55:00
4:15 PM,75.9,47.3,36,29.96,10.0,South,9.2,-,N/A,,Clear,170,2013-09-20 20:15:00
4:35 PM,76.1,49.8,40,29.96,10.0,SSE,5.8,-,N/A,,Clear,160,2013-09-20 20:35:00
4:55 PM,75.4,51.4,43,29.95,10.0,South,6.9,-,N/A,,Clear,170,2013-09-20 20:55:00
5:15 PM,74.7,49.8,42,29.96,10.0,South,8.1,-,N/A,,Clear,170,2013-09-20 21:15:00
5:35 PM,73.2,50.0,44,29.96,10.0,SSE,5.8,-,N/A,,Clear,160,2013-09-20 21:35:00
5:55 PM,70.7,51.8,51,29.95,10.0,SSE,9.2,-,N/A,,Clear,150,2013-09-20 21:55:00
6:15 PM,68.7,50.5,52,29.95,10.0,SSE,9.2,-,N/A,,Clear,160,2013-09-20 22:15:00
6:35 PM,67.8,49.6,52,29.95,10.0,SSE,10.4,-,N/A,,Clear,160,2013-09-20 22:35:00
6:55 PM,66.2,49.8,55,29.95,10.0,SSE,6.9,-,N/A,,Clear,160,2013-09-20 22:55:00
7:15 PM,63.9,50.7,62,29.95,10.0,SSE,8.1,-,N/A,,Clear,150,2013-09-20 23:15:00
7:35 PM,64.2,51.8,64,29.95,10.0,SSE,8.1,-,N/A,,Clear,160,2013-09-20 23:35:00
7:55 PM,64.6,51.8,63,29.95,10.0,SSE,6.9,-,N/A,,Clear,160,2013-09-20 23:55:00
8:15 PM,65.5,50.7,59,29.95,10.0,South,8.1,-,N/A,,Clear,170,2013-09-21 00:15:00
8:35 PM,64.9,50.4,59,29.96,10.0,SSW,3.5,-,N/A,,Clear,200,2013-09-21 00:35:00
8:55 PM,64.4,50.0,59,29.96,10.0,South,6.9,-,N/A,,Clear,170,2013-09-21 00:55:00
9:15 PM,64.0,49.5,59,29.96,10.0,South,6.9,-,N/A,,Clear,170,2013-09-21 01:15:00
9:35 PM,63.9,49.5,59,29.95,10.0,South,8.1,-,N/A,,Clear,170,2013-09-21 01:35:00
9:55 PM,62.8,50.0,63,29.95,10.0,South,8.1,-,N/A,,Clear,170,2013-09-21 01:55:00
10:15 PM,63.5,50.4,62,29.95,10.0,South,10.4,-,N/A,,Clear,170,2013-09-21 02:15:00
10:35 PM,62.6,50.5,65,29.95,10.0,South,8.1,-,N/A,,Clear,170,2013-09-21 02:35:00
10:55 PM,62.1,50.5,66,29.95,10.0,South,5.8,-,N/A,,Clear,170,2013-09-21 02:55:00
11:15 PM,62.1,50.7,66,29.94,10.0,South,9.2,-,N/A,,Clear,170,2013-09-21 03:15:00
11:35 PM,60.8,50.7,69,29.93,10.0,South,6.9,-,N/A,,Clear,180,2013-09-21 03:35:00
11:55 PM,60.1,50.9,72,29.93,10.0,South,5.8,-,N/A,,Clear,190,2013-09-21 03:55:00